Time,TemperatureF,DewpointF,PressureIn,WindDirection,WindDirectionDegrees,WindSpeedMPH,WindSpeedGustMPH,Humidity,HourlyPrecipIn,Conditions,Clouds,dailyrainin,SoftwareType,DateUTC
2013-08-19 00:00:00,68.7,61.9,30.09,South,180,2.0,5.0,79,0.00,,---,0.00,VWS V14.01,2013-08-19 05:00:00,
2013-08-19 00:04:00,68.6,62.0,30.09,SSW,193,1.0,5.0,79,0.00,,,0.00,weatherlink.com 1.10,2013-08-19 05:04:00,
2013-08-19 00:10:00,68.6,61.8,30.09,SSW,202,2.0,6.0,79,0.00,,---,0.00,VWS V14.01,2013-08-19 05:10:00,
2013-08-19 00:19:00,68.2,62.0,30.09,SSE,147,2.0,7.0,80,0.00,,,0.00,weatherlink.com 1.10,2013-08-19 05:19:00,
2013-08-19 00:20:00,68.3,61.9,30.09,SSW,202,2.0,7.0,80,0.00,,---,0.00,VWS V14.01,2013-08-19 05:20:00,
2013-08-19 00:30:00,68.2,61.8,30.09,SSW,202,2.0,5.0,80,0.00,,---,0.00,VWS V14.01,2013-08-19 05:30:00,
2013-08-19 00:34:00,68.2,62.0,30.08,SSE,160,2.0,9.0,80,0.00,,,0.00,weatherlink.com 1.10,2013-08-19 05:34:00,
2013-08-19 00:40:00,68.1,61.7,30.07,SSW,202,2.0,9.0,80,0.00,,---,0.00,VWS V14.01,2013-08-19 05:40:00,
2013-08-19 00:49:00,67.8,61.0,30.07,SSW,203,2.0,7.0,80,0.00,,,0.00,weatherlink.com 1.10,2013-08-19 05:49:00,
2013-08-19 00:50:00,67.8,61.4,30.07,SSW,202,3.0,7.0,80,0.00,,---,0.00,VWS V14.01,2013-08-19 05:50:00,
2013-08-19 01:00:00,67.7,61.7,30.07,SSW,202,3.0,7.0,81,0.00,,---,0.00,VWS V14.01,2013-08-19 06:00:00,
2013-08-19 01:04:00,67.7,62.0,30.07,SW,221,3.0,8.0,81,0.00,,,0.00,weatherlink.com 1.10,2013-08-19 06:04:00,
2013-08-19 01:10:00,67.7,61.7,30.07,SSW,202,3.0,8.0,81,0.00,,---,0.00,VWS V14.01,2013-08-19 06:10:00,
2013-08-19 01:19:00,67.5,62.0,30.06,SSE,148,3.0,5.0,81,0.00,,,0.00,weatherlink.com 1.10,2013-08-19 06:19:00,
2013-08-19 01:20:00,67.6,61.6,30.06,SSW,202,2.0,6.0,81,0.00,,---,0.00,VWS V14.01,2013-08-19 06:20:00,
2013-08-19 01:30:00,67.3,61.6,30.06,SSW,202,3.0,7.0,82,0.00,,---,0.00,VWS V14.01,2013-08-19 06:30:00,
2013-08-19 01:34:00,67.1,61.0,30.06,South,171,2.0,7.0,82,0.00,,,0.00,weatherlink.com 1.10,2013-08-19 06:34:00,
2013-08-19 01:40:00,67.1,61.8,30.06,SSW,202,3.0,8.0,83,0.00,,---,0.00,VWS V14.01,2013-08-19 06:40:00,
2013-08-19 01:50:00,66.8,62.0,30.05,SSW,201,5.0,8.0,83,0.00,,,0.00,weatherlink.com 1.10,2013-08-19 06:50:00,
2013-08-19 02:00:00,66.7,61.7,30.05,SSW,202,2.0,6.0,84,0.00,,---,0.00,VWS V14.01,2013-08-19 07:00:00,
2013-08-19 02:05:00,66.5,62.0,30.05,South,179,4.0,7.0,84,0.00,,,0.00,weatherlink.com 1.10,2013-08-19 07:05:00,
2013-08-19 02:10:00,66.5,61.5,30.05,SSW,202,3.0,7.0,84,0.00,,---,0.00,VWS V14.01,2013-08-19 07:10:00,
2013-08-19 02:20:00,66.4,62.0,30.05,SSW,198,1.0,8.0,84,0.00,,,0.00,weatherlink.com 1.10,2013-08-19 07:20:00,
2013-08-19 02:30:00,66.4,61.4,30.06,SSW,202,2.0,6.0,84,0.00,,---,0.00,VWS V14.01,2013-08-19 07:30:00,
2013-08-19 02:35:00,66.4,62.0,30.06,South,180,1.0,5.0,84,0.00,,,0.00,weatherlink.com 1.10,2013-08-19 07:35:00,
2013-08-19 02:40:00,66.3,61.3,30.06,SSW,202,2.0,5.0,84,0.00,,---,0.00,VWS V14.01,2013-08-19 07:40:00,
2013-08-19 02:50:00,66.5,62.0,30.06,SE,134,2.0,5.0,84,0.00,,,0.00,weatherlink.com 1.10,2013-08-19 07:50:00,
2013-08-19 03:00:00,66.5,61.5,30.06,SSE,158,2.0,4.0,84,0.00,,---,0.00,VWS V14.01,2013-08-19 08:00:00,
2013-08-19 03:05:00,66.5,62.0,30.06,SSE,151,2.0,5.0,84,0.00,,,0.00,weatherlink.com 1.10,2013-08-19 08:05:00,
2013-08-19 03:10:00,66.5,61.5,30.06,SSE,158,2.0,6.0,84,0.00,,---,0.00,VWS V14.01,2013-08-19 08:10:00,
2013-08-19 03:20:00,66.4,62.0,30.06,SW,219,4.0,5.0,84,0.00,,,0.00,weatherlink.com 1.10,2013-08-19 08:20:00,
2013-08-19 03:30:00,66.3,61.7,30.06,SSE,158,2.0,6.0,85,0.00,,---,0.00,VWS V14.01,2013-08-19 08:30:00,
2013-08-19 03:35:00,66.3,62.0,30.06,SSW,197,1.0,6.0,85,0.00,,,0.00,weatherlink.com 1.10,2013-08-19 08:35:00,
2013-08-19 03:40:00,66.3,61.7,30.06,South,180,2.0,5.0,85,0.00,,---,0.00,VWS V14.01,2013-08-19 08:40:00,
2013-08-19 03:50:00,66.2,62.0,30.06,SE,139,0.0,4.0,85,0.00,,,0.00,weatherlink.com 1.10,2013-08-19 08:50:00,
2013-08-19 04:00:00,66.1,61.5,30.06,SSW,202,1.0,4.0,85,0.00,,---,0.00,VWS V14.01,2013-08-19 09:00:00,
2013-08-19 04:05:00,65.9,61.0,30.06,SSW,194,1.0,4.0,85,0.00,,,0.00,weatherlink.com 1.10,2013-08-19 09:05:00,
2013-08-19 04:10:00,65.9,61.3,30.07,SE,135,1.0,3.0,85,0.00,,---,0.00,VWS V14.01,2013-08-19 09:10:00,
2013-08-19 04:20:00,65.9,62.0,30.06,SE,143,4.0,4.0,86,0.00,,,0.00,weatherlink.com 1.10,2013-08-19 09:20:00,
2013-08-19 04:30:00,66.0,61.4,30.06,SSE,158,2.0,5.0,85,0.00,,---,0.00,VWS V14.01,2013-08-19 09:30:00,
2013-08-19 04:35:00,66.1,62.0,30.06,SE,139,1.0,5.0,85,0.00,,,0.00,weatherlink.com 1.10,2013-08-19 09:35:00,
2013-08-19 04:40:00,66.1,61.5,30.06,SE,135,2.0,5.0,85,0.00,,---,0.00,VWS V14.01,2013-08-19 09:40:00,
2013-08-19 04:50:00,65.9,62.0,30.05,SSE,162,2.0,4.0,86,0.00,,,0.00,weatherlink.com 1.10,2013-08-19 09:50:00,
2013-08-19 05:00:00,65.8,61.5,30.05,SE,135,1.0,4.0,86,0.00,,---,0.00,VWS V14.01,2013-08-19 10:00:00,
2013-08-19 05:06:00,65.8,62.0,30.05,SE,136,0.0,4.0,86,0.00,,,0.00,weatherlink.com 1.10,2013-08-19 10:06:00,
2013-08-19 05:10:00,65.8,61.5,30.05,SSE,158,1.0,4.0,86,0.00,,---,0.00,VWS V14.01,2013-08-19 10:10:00,
2013-08-19 05:20:00,65.8,62.0,30.05,South,186,2.0,4.0,86,0.00,,,0.00,weatherlink.com 1.10,2013-08-19 10:20:00,
2013-08-19 05:30:00,65.7,61.4,30.06,SSE,158,2.0,4.0,86,0.00,,---,0.00,VWS V14.01,2013-08-19 10:30:00,
2013-08-19 05:35:00,65.7,62.0,30.05,SSW,203,2.0,4.0,86,0.00,,,0.00,weatherlink.com 1.10,2013-08-19 10:35:00,
2013-08-19 05:40:00,65.7,61.4,30.05,SSE,158,2.0,4.0,86,0.00,,---,0.00,VWS V14.01,2013-08-19 10:40:00,
2013-08-19 05:50:00,65.5,61.0,30.06,SSW,202,1.0,4.0,86,0.00,,,0.00,weatherlink.com 1.10,2013-08-19 10:50:00,
2013-08-19 06:00:00,65.5,61.5,30.05,SSE,158,2.0,4.0,87,0.00,,---,0.00,VWS V14.01,2013-08-19 11:00:00,
2013-08-19 06:05:00,65.2,61.0,30.05,SSE,160,1.0,3.0,87,0.00,,,0.00,weatherlink.com 1.10,2013-08-19 11:05:00,
2013-08-19 06:10:00,65.3,61.3,30.05,SSW,202,1.0,3.0,87,0.00,,---,0.00,VWS V14.01,2013-08-19 11:10:00,
2013-08-19 06:20:00,65.1,61.1,30.05,South,180,2.0,6.0,87,0.00,,---,0.00,VWS V14.01,2013-08-19 11:20:00,
2013-08-19 06:21:00,65.1,62.0,30.05,South,184,3.0,6.0,88,0.00,,,0.00,weatherlink.com 1.10,2013-08-19 11:21:00,
2013-08-19 06:30:00,65.0,61.4,30.05,South,180,2.0,5.0,88,0.00,,---,0.00,VWS V14.01,2013-08-19 11:30:00,
2013-08-19 06:35:00,64.8,61.0,30.05,SSW,207,5.0,6.0,88,0.00,,,0.00,weatherlink.com 1.10,2013-08-19 11:35:00,
2013-08-19 06:40:00,64.8,61.2,30.05,SSW,202,3.0,6.0,88,0.00,,---,0.00,VWS V14.01,2013-08-19 11:40:00,
2013-08-19 06:50:00,64.7,61.0,30.05,SSW,205,1.0,5.0,88,0.00,,,0.00,weatherlink.com 1.10,2013-08-19 11:50:00,
2013-08-19 07:00:00,64.6,61.3,30.05,SSW,202,2.0,5.0,89,0.00,,---,0.00,VWS V14.01,2013-08-19 12:00:00,
2013-08-19 07:05:00,64.6,61.0,30.05,SSE,168,2.0,5.0,89,0.00,,,0.00,weatherlink.com 1.10,2013-08-19 12:05:00,
2013-08-19 07:10:00,64.6,61.3,30.05,SSE,158,2.0,5.0,89,0.00,,---,0.00,VWS V14.01,2013-08-19 12:10:00,
2013-08-19 07:20:00,64.8,62.0,30.05,SSW,202,3.0,6.0,89,0.00,,,0.00,weatherlink.com 1.10,2013-08-19 12:20:00,
2013-08-19 07:30:00,64.8,61.2,30.04,SSW,202,3.0,6.0,88,0.00,,---,0.00,VWS V14.01,2013-08-19 12:30:00,
2013-08-19 07:35:00,65.0,61.0,30.05,SSE,166,2.0,6.0,88,0.00,,,0.00,weatherlink.com 1.10,2013-08-19 12:35:00,
2013-08-19 07:40:00,65.0,61.4,30.05,SSW,202,3.0,5.0,88,0.00,,---,0.00,VWS V14.01,2013-08-19 12:40:00,
2013-08-19 07:50:00,66.2,62.0,30.05,SE,127,2.0,9.0,86,0.00,,,0.00,weatherlink.com 1.10,2013-08-19 12:50:00,
2013-08-19 08:00:00,66.5,61.5,30.05,SSW,202,3.0,8.0,84,0.00,,---,0.00,VWS V14.01,2013-08-19 13:00:00,
2013-08-19 08:05:00,67.4,62.0,30.05,SSW,205,4.0,8.0,83,0.00,,,0.00,weatherlink.com 1.10,2013-08-19 13:05:00,
2013-08-19 08:10:00,67.4,62.1,30.05,SSW,202,4.0,8.0,83,0.00,,---,0.00,VWS V14.01,2013-08-19 13:10:00,
2013-08-19 08:20:00,68.4,63.0,30.05,SSW,203,4.0,8.0,82,0.00,,,0.00,weatherlink.com 1.10,2013-08-19 13:20:00,
2013-08-19 08:30:00,68.8,62.4,30.06,SSW,202,3.0,8.0,80,0.00,,---,0.00,VWS V14.01,2013-08-19 13:30:00,
2013-08-19 08:35:00,69.9,63.0,30.05,SSW,192,5.0,6.0,79,0.00,,,0.00,weatherlink.com 1.10,2013-08-19 13:35:00,
2013-08-19 08:40:00,69.9,62.7,30.05,SSW,202,3.0,7.0,78,0.00,,---,0.00,VWS V14.01,2013-08-19 13:40:00,
2013-08-19 08:50:00,71.6,64.0,30.06,SSW,212,2.0,8.0,76,0.00,,,0.00,weatherlink.com 1.10,2013-08-19 13:50:00,
2013-08-19 09:00:00,72.0,63.7,30.06,SSW,202,4.0,10.0,75,0.00,,---,0.00,VWS V14.01,2013-08-19 14:00:00,
2013-08-19 09:05:00,73.1,64.0,30.05,SSW,195,7.0,10.0,73,0.00,,,0.00,weatherlink.com 1.10,2013-08-19 14:05:00,
2013-08-19 09:10:00,73.0,63.8,30.06,SSW,202,5.0,10.0,73,0.00,,---,0.00,VWS V14.01,2013-08-19 14:10:00,
2013-08-19 09:20:00,73.9,65.0,30.05,South,169,3.0,11.0,73,0.00,,,0.00,weatherlink.com 1.10,2013-08-19 14:20:00,
2013-08-19 09:30:00,74.1,64.5,30.05,SSW,202,5.0,11.0,72,0.00,,---,0.00,VWS V14.01,2013-08-19 14:30:00,
2013-08-19 09:35:00,74.6,65.0,30.05,SSW,212,5.0,11.0,71,0.00,,,0.00,weatherlink.com 1.10,2013-08-19 14:35:00,
2013-08-19 09:40:00,74.6,64.2,30.05,SSW,202,5.0,11.0,70,0.00,,---,0.00,VWS V14.01,2013-08-19 14:40:00,
2013-08-19 09:50:00,75.5,65.0,30.05,SSW,198,7.0,13.0,69,0.00,,,0.00,weatherlink.com 1.10,2013-08-19 14:50:00,
2013-08-19 10:00:00,75.4,64.9,30.05,SSW,202,5.0,13.0,70,0.00,,---,0.00,VWS V14.01,2013-08-19 15:00:00,
2013-08-19 10:05:00,75.6,65.0,30.05,SSW,200,12.0,14.0,70,0.00,,,0.00,weatherlink.com 1.10,2013-08-19 15:05:00,
2013-08-19 10:10:00,75.7,65.2,30.05,SSW,202,6.0,14.0,70,0.00,,---,0.00,VWS V14.01,2013-08-19 15:10:00,
2013-08-19 10:20:00,77.2,65.0,30.05,SSW,213,10.0,11.0,67,0.00,,,0.00,weatherlink.com 1.10,2013-08-19 15:20:00,
2013-08-19 10:30:00,77.6,65.8,30.05,SSW,202,5.0,11.0,67,0.00,,---,0.00,VWS V14.01,2013-08-19 15:30:00,
2013-08-19 10:35:00,79.1,66.0,30.05,South,184,7.0,9.0,65,0.00,,,0.00,weatherlink.com 1.10,2013-08-19 15:35:00,
2013-08-19 10:40:00,78.8,65.6,30.05,SSW,202,5.0,13.0,64,0.00,,---,0.00,VWS V14.01,2013-08-19 15:40:00,
2013-08-19 10:50:00,79.7,65.0,30.05,WSW,243,8.0,14.0,62,0.00,,,0.00,weatherlink.com 1.10,2013-08-19 15:50:00,
2013-08-19 11:00:00,79.9,66.2,30.04,SSW,202,6.0,15.0,63,0.00,,---,0.00,VWS V14.01,2013-08-19 16:00:00,
2013-08-19 11:05:00,80.6,66.0,30.04,SSW,211,7.0,13.0,62,0.00,,,0.00,weatherlink.com 1.10,2013-08-19 16:05:00,
2013-08-19 11:10:00,80.4,66.2,30.04,SSW,202,7.0,13.0,62,0.00,,---,0.00,VWS V14.01,2013-08-19 16:10:00,
2013-08-19 11:20:00,79.6,66.0,30.04,SSW,197,1.0,15.0,64,0.00,,,0.00,weatherlink.com 1.10,2013-08-19 16:20:00,
2013-08-19 11:30:00,79.6,67.2,30.03,SSW,202,7.0,17.0,66,0.00,,---,0.00,VWS V14.01,2013-08-19 16:30:00,
2013-08-19 11:36:00,79.6,67.0,30.04,SSE,160,7.0,13.0,66,0.00,,,0.00,weatherlink.com 1.10,2013-08-19 16:36:00,
2013-08-19 11:40:00,79.7,67.3,30.04,South,180,6.0,13.0,66,0.00,,---,0.00,VWS V14.01,2013-08-19 16:40:00,
2013-08-19 11:50:00,80.8,67.5,30.03,SSW,202,7.0,13.0,64,0.00,,---,0.00,VWS V14.01,2013-08-19 16:50:00,
2013-08-19 11:51:00,81.0,69.0,30.03,SSE,160,4.0,13.0,66,0.00,,,0.00,weatherlink.com 1.10,2013-08-19 16:51:00,
2013-08-19 12:00:00,81.8,67.5,30.03,SSW,202,6.0,15.0,62,0.00,,---,0.00,VWS V14.01,2013-08-19 17:00:00,
2013-08-19 12:06:00,82.7,66.0,30.03,ESE,119,7.0,16.0,58,0.00,,,0.00,weatherlink.com 1.10,2013-08-19 17:06:00,
2013-08-19 12:10:00,82.6,66.3,30.03,SSW,202,7.0,16.0,58,0.00,,---,0.00,VWS V14.01,2013-08-19 17:10:00,
2013-08-19 12:20:00,83.0,66.7,30.03,SSW,202,7.0,20.0,58,0.00,,---,0.00,VWS V14.01,2013-08-19 17:20:00,
2013-08-19 12:21:00,83.4,67.0,30.03,SW,228,7.0,20.0,58,0.00,,,0.00,weatherlink.com 1.10,2013-08-19 17:21:00,
2013-08-19 12:30:00,83.6,66.8,30.02,SSW,202,5.0,14.0,57,0.00,,---,0.00,VWS V14.01,2013-08-19 17:30:00,
2013-08-19 12:36:00,83.9,67.0,30.02,SSW,207,9.0,15.0,58,0.00,,,0.00,weatherlink.com 1.10,2013-08-19 17:36:00,
2013-08-19 12:40:00,84.0,67.1,30.02,SSW,202,7.0,15.0,57,0.00,,---,0.00,VWS V14.01,2013-08-19 17:40:00,
2013-08-19 12:50:00,84.4,67.5,30.01,SSW,202,7.0,14.0,57,0.00,,---,0.00,VWS V14.01,2013-08-19 17:50:00,
2013-08-19 12:51:00,84.2,67.0,30.01,South,186,4.0,14.0,56,0.00,,,0.00,weatherlink.com 1.10,2013-08-19 17:51:00,
2013-08-19 13:00:00,84.2,66.8,30.01,SSW,202,7.0,15.0,56,0.00,,---,0.00,VWS V14.01,2013-08-19 18:00:00,
2013-08-19 13:06:00,84.7,67.0,30.01,SW,223,9.0,16.0,55,0.00,,,0.00,weatherlink.com 1.10,2013-08-19 18:06:00,
2013-08-19 13:10:00,84.6,67.2,30.01,SSW,202,7.0,16.0,56,0.00,,---,0.00,VWS V14.01,2013-08-19 18:10:00,
2013-08-19 13:20:00,84.8,66.8,30.01,SSW,202,8.0,16.0,55,0.00,,---,0.00,VWS V14.01,2013-08-19 18:20:00,
2013-08-19 13:21:00,84.5,67.0,30.00,WSW,238,7.0,16.0,55,0.00,,,0.00,weatherlink.com 1.10,2013-08-19 18:21:00,
2013-08-19 13:30:00,84.4,67.5,30.00,SSW,202,9.0,16.0,57,0.00,,---,0.00,VWS V14.01,2013-08-19 18:30:00,
2013-08-19 13:36:00,84.4,67.0,30.00,South,179,5.0,17.0,56,0.00,,,0.00,weatherlink.com 1.10,2013-08-19 18:36:00,
2013-08-19 13:40:00,84.4,67.5,30.00,SSW,202,8.0,17.0,57,0.00,,---,0.00,VWS V14.01,2013-08-19 18:40:00,
2013-08-19 13:50:00,84.6,66.7,30.00,SSW,202,9.0,21.0,55,0.00,,---,0.00,VWS V14.01,2013-08-19 18:50:00,
2013-08-19 13:51:00,85.2,67.0,29.99,SSW,193,8.0,19.0,55,0.00,,,0.00,weatherlink.com 1.10,2013-08-19 18:51:00,
2013-08-19 14:00:00,85.1,67.1,29.99,SSW,202,9.0,22.0,55,0.00,,---,0.00,VWS V14.01,2013-08-19 19:00:00,
2013-08-19 14:06:00,85.2,67.0,29.99,SSW,210,10.0,17.0,54,0.00,,,0.00,weatherlink.com 1.10,2013-08-19 19:06:00,
2013-08-19 14:10:00,85.1,67.7,29.99,SSW,202,8.0,17.0,56,0.00,,---,0.00,VWS V14.01,2013-08-19 19:10:00,
2013-08-19 14:20:00,85.3,66.8,29.99,SSW,202,9.0,23.0,54,0.00,,---,0.00,VWS V14.01,2013-08-19 19:20:00,
2013-08-19 14:21:00,85.4,67.0,29.99,SSW,208,7.0,23.0,54,0.00,,,0.00,weatherlink.com 1.10,2013-08-19 19:21:00,
2013-08-19 14:30:00,85.4,66.9,29.99,SSW,202,9.0,20.0,54,0.00,,---,0.00,VWS V14.01,2013-08-19 19:30:00,
2013-08-19 14:36:00,85.6,68.0,29.98,SSW,193,16.0,18.0,55,0.00,,,0.00,weatherlink.com 1.10,2013-08-19 19:36:00,
2013-08-19 14:40:00,85.7,67.7,29.98,SSW,202,9.0,16.0,55,0.00,,---,0.00,VWS V14.01,2013-08-19 19:40:00,
2013-08-19 14:50:00,85.8,67.8,29.98,SSW,202,8.0,18.0,55,0.00,,---,0.00,VWS V14.01,2013-08-19 19:50:00,
2013-08-19 14:51:00,86.1,67.0,29.98,SW,214,9.0,18.0,54,0.00,,,0.00,weatherlink.com 1.10,2013-08-19 19:51:00,
2013-08-19 15:00:00,86.4,67.3,29.98,SSW,202,6.0,15.0,53,0.00,,---,0.00,VWS V14.01,2013-08-19 20:00:00,
2013-08-19 15:06:00,86.6,68.0,29.98,WSW,237,4.0,16.0,54,0.00,,,0.00,weatherlink.com 1.10,2013-08-19 20:06:00,
2013-08-19 15:10:00,86.6,68.0,29.97,SSW,202,7.0,16.0,54,0.00,,---,0.00,VWS V14.01,2013-08-19 20:10:00,
2013-08-19 15:20:00,86.6,67.4,29.97,SSW,202,7.0,16.0,53,0.00,,---,0.00,VWS V14.01,2013-08-19 20:20:00,
2013-08-19 15:21:00,86.4,67.0,29.97,WNW,282,3.0,16.0,53,0.00,,,0.00,weatherlink.com 1.10,2013-08-19 20:21:00,
2013-08-19 15:30:00,86.2,67.6,29.97,SSW,202,9.0,17.0,54,0.00,,---,0.00,VWS V14.01,2013-08-19 20:30:00,
2013-08-19 15:36:00,86.0,67.0,29.97,SSW,198,6.0,17.0,54,0.00,,,0.00,weatherlink.com 1.10,2013-08-19 20:36:00,
2013-08-19 15:40:00,86.0,68.0,29.97,SSW,202,9.0,17.0,55,0.00,,---,0.00,VWS V14.01,2013-08-19 20:40:00,
2013-08-19 15:50:00,86.0,68.0,29.96,SSW,202,7.0,18.0,55,0.00,,---,0.00,VWS V14.01,2013-08-19 20:50:00,
2013-08-19 15:51:00,86.3,68.0,29.97,SW,225,3.0,15.0,54,0.00,,,0.00,weatherlink.com 1.10,2013-08-19 20:51:00,
2013-08-19 16:00:00,86.3,67.7,29.96,SSW,202,8.0,19.0,54,0.00,,---,0.00,VWS V14.01,2013-08-19 21:00:00,
2013-08-19 16:06:00,86.0,67.0,29.96,SSE,162,3.0,16.0,54,0.00,,,0.00,weatherlink.com 1.10,2013-08-19 21:06:00,
2013-08-19 16:10:00,86.0,67.4,29.96,SSW,202,7.0,16.0,54,0.00,,---,0.00,VWS V14.01,2013-08-19 21:10:00,
2013-08-19 16:20:00,86.4,68.3,29.95,SSW,202,7.0,16.0,55,0.00,,---,0.00,VWS V14.01,2013-08-19 21:20:00,
2013-08-19 16:21:00,86.2,68.0,29.96,SW,214,5.0,15.0,55,0.00,,,0.00,weatherlink.com 1.10,2013-08-19 21:21:00,
2013-08-19 16:30:00,86.3,67.7,29.96,SSW,202,7.0,15.0,54,0.00,,---,0.00,VWS V14.01,2013-08-19 21:30:00,
2013-08-19 16:36:00,86.4,67.0,29.96,South,172,4.0,16.0,53,0.00,,,0.00,weatherlink.com 1.10,2013-08-19 21:36:00,
2013-08-19 16:40:00,86.3,68.2,29.96,SSW,202,6.0,16.0,55,0.00,,---,0.00,VWS V14.01,2013-08-19 21:40:00,
2013-08-19 16:50:00,86.6,68.0,29.96,SSW,202,5.0,12.0,54,0.00,,---,0.00,VWS V14.01,2013-08-19 21:50:00,
2013-08-19 16:51:00,86.7,69.0,29.96,ESE,110,3.0,12.0,55,0.00,,,0.00,weatherlink.com 1.10,2013-08-19 21:51:00,
2013-08-19 17:00:00,86.4,68.3,29.95,South,180,6.0,19.0,55,0.00,,---,0.00,VWS V14.01,2013-08-19 22:00:00,
2013-08-19 17:06:00,85.6,68.0,29.95,SW,220,10.0,18.0,55,0.00,,,0.00,weatherlink.com 1.10,2013-08-19 22:06:00,
2013-08-19 17:10:00,86.0,67.4,29.96,SSW,202,7.0,16.0,54,0.00,,---,0.00,VWS V14.01,2013-08-19 22:10:00,
2013-08-19 17:15:00,86.4,68.3,29.95,South,180,6.0,19.0,55,0.00,,---,0.00,VWS V14.01,2013-08-19 22:15:00,
2013-08-19 17:20:00,85.8,67.8,29.94,West,276,7.0,8.0,55,0.00,,---,0.00,VWS V14.01,2013-08-19 22:20:00,
2013-08-19 17:25:00,85.6,68.1,29.94,SSW,195,11.0,11.0,56,0.00,,---,0.00,VWS V14.01,2013-08-19 22:25:00,
2013-08-19 17:30:00,85.3,68.3,29.95,SSE,150,7.0,16.0,57,0.00,,---,0.00,VWS V14.01,2013-08-19 22:30:00,
2013-08-19 17:35:00,85.2,67.8,29.94,SW,222,11.0,16.0,56,0.00,,---,0.00,VWS V14.01,2013-08-19 22:35:00,
2013-08-19 17:40:00,85.2,68.3,29.94,SW,221,16.0,16.0,57,0.00,,---,0.00,VWS V14.01,2013-08-19 22:40:00,
2013-08-19 17:45:00,85.2,67.8,29.94,SSW,210,9.0,16.0,56,0.00,,---,0.00,VWS V14.01,2013-08-19 22:45:00,
2013-08-19 17:50:00,85.0,68.1,29.94,SSW,196,6.0,13.0,57,0.00,,---,0.00,VWS V14.01,2013-08-19 22:50:00,
2013-08-19 17:55:00,85.1,68.2,29.94,SSE,160,10.0,15.0,57,0.00,,---,0.00,VWS V14.01,2013-08-19 22:55:00,
2013-08-19 18:00:00,85.2,68.3,29.94,SW,214,4.0,12.0,57,0.00,,---,0.00,VWS V14.01,2013-08-19 23:00:00,
2013-08-19 18:05:00,85.0,68.1,29.93,SSW,207,2.0,12.0,57,0.00,,---,0.00,VWS V14.01,2013-08-19 23:05:00,
2013-08-19 18:10:00,84.8,67.9,29.94,SSW,210,7.0,11.0,57,0.00,,---,0.00,VWS V14.01,2013-08-19 23:10:00,
2013-08-19 18:15:00,84.7,68.3,29.93,SSW,206,9.0,13.0,58,0.00,,---,0.00,VWS V14.01,2013-08-19 23:15:00,
2013-08-19 18:20:00,84.5,68.1,29.93,SW,221,6.0,11.0,58,0.00,,---,0.00,VWS V14.01,2013-08-19 23:20:00,
2013-08-19 18:25:00,84.5,68.1,29.93,SSW,200,13.0,13.0,58,0.00,,---,0.00,VWS V14.01,2013-08-19 23:25:00,
2013-08-19 18:30:00,84.3,68.4,29.93,SSW,207,12.0,14.0,59,0.00,,---,0.00,VWS V14.01,2013-08-19 23:30:00,
2013-08-19 18:35:00,84.1,68.2,29.93,SSE,148,5.0,16.0,59,0.00,,---,0.00,VWS V14.01,2013-08-19 23:35:00,
2013-08-19 18:40:00,84.0,68.6,29.93,SE,127,6.0,9.0,60,0.00,,---,0.00,VWS V14.01,2013-08-19 23:40:00,
2013-08-19 18:45:00,83.8,68.4,29.93,South,188,3.0,13.0,60,0.00,,---,0.00,VWS V14.01,2013-08-19 23:45:00,
2013-08-19 18:50:00,83.8,68.4,29.93,SSW,213,7.0,11.0,60,0.00,,---,0.00,VWS V14.01,2013-08-19 23:50:00,
2013-08-19 18:55:00,83.6,68.3,29.93,SSE,153,6.0,15.0,60,0.00,,---,0.00,VWS V14.01,2013-08-19 23:55:00,
2013-08-19 19:00:00,83.6,68.3,29.93,SE,144,5.0,8.0,60,0.00,,---,0.00,VWS V14.01,2013-08-20 00:00:00,
2013-08-19 19:05:00,83.4,68.1,29.93,South,176,10.0,14.0,60,0.00,,---,0.00,VWS V14.01,2013-08-20 00:05:00,
2013-08-19 19:10:00,83.2,68.4,29.93,SSW,202,4.0,6.0,61,0.00,,---,0.00,VWS V14.01,2013-08-20 00:10:00,
2013-08-19 19:15:00,83.0,68.7,29.93,SW,214,3.0,11.0,62,0.00,,---,0.00,VWS V14.01,2013-08-20 00:15:00,
2013-08-19 19:20:00,82.9,68.6,29.93,SW,233,5.0,7.0,62,0.00,,---,0.00,VWS V14.01,2013-08-20 00:20:00,
2013-08-19 19:25:00,82.7,68.4,29.93,SSE,164,4.0,12.0,62,0.00,,---,0.00,VWS V14.01,2013-08-20 00:25:00,
2013-08-19 19:30:00,82.8,68.9,29.93,SSW,202,4.0,12.0,63,0.00,,---,0.00,VWS V14.01,2013-08-20 00:30:00,
2013-08-19 19:39:00,82.3,68.0,29.93,NE,45,9.0,10.0,63,0.00,,,0.00,weatherlink.com 1.10,2013-08-20 00:39:00,
2013-08-19 19:40:00,82.5,68.6,29.93,SSW,202,5.0,10.0,63,0.00,,---,0.00,VWS V14.01,2013-08-20 00:40:00,
2013-08-19 19:50:00,81.9,68.5,29.93,SSW,202,4.0,11.0,64,0.00,,---,0.00,VWS V14.01,2013-08-20 00:50:00,
2013-08-19 19:54:00,81.5,68.0,29.93,SSE,162,2.0,11.0,64,0.00,,,0.00,weatherlink.com 1.10,2013-08-20 00:54:00,
2013-08-19 20:00:00,81.5,68.6,29.93,SSW,202,4.0,10.0,65,0.00,,---,0.00,VWS V14.01,2013-08-20 01:00:00,
2013-08-19 20:09:00,81.0,68.0,29.94,South,172,5.0,9.0,65,0.00,,,0.00,weatherlink.com 1.10,2013-08-20 01:09:00,
2013-08-19 20:10:00,81.1,68.2,29.94,SSW,202,4.0,9.0,65,0.00,,---,0.00,VWS V14.01,2013-08-20 01:10:00,
2013-08-19 20:20:00,80.9,68.5,29.94,SSW,202,3.0,7.0,66,0.00,,---,0.00,VWS V14.01,2013-08-20 01:20:00,
2013-08-19 20:24:00,80.7,68.0,29.94,SSW,210,2.0,6.0,66,0.00,,,0.00,weatherlink.com 1.10,2013-08-20 01:24:00,
2013-08-19 20:30:00,80.7,68.3,29.94,South,180,3.0,6.0,66,0.00,,---,0.00,VWS V14.01,2013-08-20 01:30:00,
2013-08-19 20:39:00,80.3,68.0,29.94,SSE,148,2.0,6.0,67,0.00,,,0.00,weatherlink.com 1.10,2013-08-20 01:39:00,
2013-08-19 20:40:00,80.4,68.9,29.94,SSW,202,2.0,6.0,68,0.00,,---,0.00,VWS V14.01,2013-08-20 01:40:00,
2013-08-19 20:50:00,80.0,68.9,29.94,South,180,3.0,6.0,69,0.00,,---,0.00,VWS V14.01,2013-08-20 01:50:00,
2013-08-19 20:54:00,79.7,69.0,29.95,SE,143,2.0,7.0,70,0.00,,,0.00,weatherlink.com 1.10,2013-08-20 01:54:00,
2013-08-19 21:00:00,79.7,69.1,29.95,SSE,158,3.0,7.0,70,0.00,,---,0.00,VWS V14.01,2013-08-20 02:00:00,
2013-08-19 21:09:00,79.1,69.0,29.95,SW,226,2.0,9.0,70,0.00,,,0.00,weatherlink.com 1.10,2013-08-20 02:09:00,
2013-08-19 21:10:00,79.3,69.1,29.95,SSW,202,3.0,9.0,71,0.00,,---,0.00,VWS V14.01,2013-08-20 02:10:00,
2013-08-19 21:20:00,78.7,68.9,29.96,SSE,158,4.0,10.0,72,0.00,,---,0.00,VWS V14.01,2013-08-20 02:20:00,
2013-08-19 21:24:00,78.4,68.0,29.96,South,182,4.0,10.0,71,0.00,,,0.00,weatherlink.com 1.10,2013-08-20 02:24:00,
2013-08-19 21:30:00,78.4,68.2,29.96,SSW,202,3.0,8.0,71,0.00,,---,0.00,VWS V14.01,2013-08-20 02:30:00,
2013-08-19 21:39:00,77.8,68.0,29.96,SSE,150,7.0,9.0,72,0.00,,,0.00,weatherlink.com 1.10,2013-08-20 02:39:00,
2013-08-19 21:40:00,78.1,68.3,29.96,SSE,158,4.0,9.0,72,0.00,,---,0.00,VWS V14.01,2013-08-20 02:40:00,
2013-08-19 21:50:00,77.5,67.8,29.96,SSW,202,4.0,10.0,72,0.00,,---,0.00,VWS V14.01,2013-08-20 02:50:00,
2013-08-19 21:54:00,77.5,68.0,29.96,South,174,3.0,8.0,72,0.00,,,0.00,weatherlink.com 1.10,2013-08-20 02:54:00,
2013-08-19 22:00:00,77.5,68.2,29.96,SSE,158,4.0,9.0,73,0.00,,---,0.00,VWS V14.01,2013-08-20 03:00:00,
2013-08-19 22:09:00,77.0,68.0,29.96,SSW,207,4.0,8.0,74,0.00,,,0.00,weatherlink.com 1.10,2013-08-20 03:09:00,
2013-08-19 22:10:00,76.9,68.0,29.96,South,180,3.0,8.0,74,0.00,,---,0.00,VWS V14.01,2013-08-20 03:10:00,
2013-08-19 22:20:00,76.8,68.3,29.96,South,180,5.0,10.0,75,0.00,,---,0.00,VWS V14.01,2013-08-20 03:20:00,
2013-08-19 22:24:00,76.2,68.0,29.97,SW,218,6.0,9.0,75,0.00,,,0.00,weatherlink.com 1.10,2013-08-20 03:24:00,
2013-08-19 22:30:00,76.2,67.7,29.96,South,180,4.0,9.0,75,0.00,,---,0.00,VWS V14.01,2013-08-20 03:30:00,
2013-08-19 22:39:00,75.5,68.0,29.96,WSW,252,1.0,10.0,77,0.00,,,0.00,weatherlink.com 1.10,2013-08-20 03:39:00,
2013-08-19 22:40:00,75.8,68.1,29.96,SSW,202,3.0,10.0,77,0.00,,---,0.00,VWS V14.01,2013-08-20 03:40:00,
2013-08-19 22:50:00,75.7,67.6,29.96,South,180,4.0,11.0,76,0.00,,---,0.00,VWS V14.01,2013-08-20 03:50:00,
2013-08-19 22:54:00,75.1,67.0,29.96,SSW,198,4.0,9.0,77,0.00,,,0.00,weatherlink.com 1.10,2013-08-20 03:54:00,
2013-08-19 23:00:00,75.2,67.5,29.96,SSW,202,4.0,9.0,77,0.00,,---,0.00,VWS V14.01,2013-08-20 04:00:00,
2013-08-19 23:09:00,74.8,68.0,29.96,SSE,158,3.0,11.0,78,0.00,,,0.00,weatherlink.com 1.10,2013-08-20 04:09:00,
2013-08-19 23:10:00,75.0,67.7,29.96,SSW,202,5.0,11.0,78,0.00,,---,0.00,VWS V14.01,2013-08-20 04:10:00,
2013-08-19 23:20:00,74.7,67.4,29.96,South,180,5.0,11.0,78,0.00,,---,0.00,VWS V14.01,2013-08-20 04:20:00,
2013-08-19 23:24:00,74.5,67.0,29.95,SW,216,2.0,11.0,78,0.00,,,0.00,weatherlink.com 1.10,2013-08-20 04:24:00,
2013-08-19 23:30:00,74.5,67.6,29.95,SSW,202,5.0,15.0,79,0.00,,---,0.00,VWS V14.01,2013-08-20 04:30:00,
2013-08-19 23:39:00,74.2,67.0,29.95,South,186,4.0,11.0,79,0.00,,,0.00,weatherlink.com 1.10,2013-08-20 04:39:00,
2013-08-19 23:40:00,74.2,67.3,29.95,SSW,202,5.0,11.0,79,0.00,,---,0.00,VWS V14.01,2013-08-20 04:40:00,
2013-08-19 23:50:00,73.9,67.3,29.95,SSW,202,4.0,9.0,80,0.00,,---,0.00,VWS V14.01,2013-08-20 04:50:00,
2013-08-19 23:54:00,73.8,67.0,29.95,ESE,120,5.0,9.0,80,0.00,,,0.00,weatherlink.com 1.10,2013-08-20 04:54:00,